Regional Weather Roundup
Issued by NWS Cleveland, OH

Home | Current Version | Previous Version | Text Only | Print | Product List | Glossary Off
Versions: 1 2 3 4 5 6 7 8 9 10 11 12 13 14 15 16 17 18 19 20 21 22 23 24 25 26 27 28 29 30 31 32 33 34 35 36 37 38 39 40 41 42 43 44 45 46 47 48 49 50

000
ASUS41 KCLE 160002
RWRCLE
OHIO REGIONAL WEATHER ROUNDUP
NATIONAL WEATHER SERVICE CLEVELAND, OH
800 PM EDT TUE APR 15 2014

NOTE: "FAIR" INDICATES FEW OR NO CLOUDS BELOW 12,000 FEET WITH NO
SIGNIFICANT WEATHER AND/OR OBSTRUCTIONS TO VISIBILITY.

OHZ001>008-015>018-024>027-034-035-043-044-160100-
   NORTHWEST OHIO

CITY           SKY/WX    TMP DP  RH WIND       PRES   REMARKS
DEFIANCE       CLEAR     32  11  41 NW10      30.17R WCI  24
FINDLAY        MOCLDY    32  15  49 NW14      30.14R WCI  22
TOLEDO EXPRESS PTCLDY    32  12  43 NW10      30.15R WCI  24
TOLEDO EXEC    PTCLDY    32  14  47 NW15      30.15R WCI  22
LIMA           PTCLDY    33  16  49 NW14      30.15R WCI  23
$$

OHZ009>014-019>023-028>033-038-089-160100-
   NORTHEAST OHIO

CITY           SKY/WX    TMP DP  RH WIND       PRES   REMARKS
CLE-HOPKINS    MOCLDY    33  19  56 W13       30.14R WCI  24
CLE-LAKEFRONT  LGT SNOW  30  23  74 W13       30.11R WCI  20
CUY CO. ARPT   MOCLDY    32  18  55 NW17      30.11R WCI  21
LORAIN-ELYRIA  LGT SNOW  33  21  61 NW10      30.13R WCI  25
ASHTABULA      LGT SNOW  27  22  81 NW10      30.09R VSB 3/4 WCI  17
AKRON-CANTON   MOCLDY    30  22  74 NW12      30.09R WCI  20
WOOSTER        MOCLDY    29  17  61 NW13      30.11R WCI  19
MANSFIELD      MOCLDY    29  18  63 NW6       30.11R WCI  23
YOUNGSTOWN     MOCLDY    28  16  60 NW15G24   30.06R WCI  16
$$

OHZ042-051>053-060>062-070>072-077>081-160100-
  SOUTHWEST OHIO

CITY           SKY/WX    TMP DP  RH WIND       PRES   REMARKS
CINC-COVINGTON PTCLDY    36  16  44 NW17      30.18R
CINC-LUNKEN    CLOUDY    36  18  48 NW13      30.20R
HAMILTON       CLOUDY    38  17  42 NW15      30.20R
DAYTON         MOCLDY    33  16  49 NW12      30.17R WCI  24
WRIGHT-PAT AFB NOT AVBL
DAYTON GENERAL CLOUDY    34  16  47 NW14      30.16R WCI  25
WILMINGTON     CLOUDY    34  16  47 NW14G22   30.16R WCI  25
$$

OHZ036-037-039>041-045>050-054>059-063>069-073>076-082>088-160100-
  CENTRAL AND SOUTHEAST OHIO

CITY           SKY/WX    TMP DP  RH WIND       PRES   REMARKS
COLUMBUS       MOCLDY    34  17  50 NW17      30.15R WCI  23
OSU AIRPORT    CLOUDY    32  15  49 NW15      30.15R WCI  22
BOLTON FIELD   NOT AVBL
RICKENBACK AFB NOT AVBL
NEWARK         CLOUDY    32  17  54 NW16G24   30.14R WCI  21
MARION         CLOUDY    31  15  52 NW14      30.14R WCI  21
LANCASTER      CLOUDY    34  18  52 NW12      30.14R WCI  25
ZANESVILLE     CLOUDY    32  18  56 NW10      30.13R WCI  24
NEW PHILLY     MOCLDY    31  18  58 NW9G23    30.13R WCI  23
$$



USA.gov is the U.S. government's official web portal to all federal, state and local government web resources and services.